Data supplied by UK-AIR on 28/3/2019
All Data GMT hour ending 
Status: R =Ratified P=Provisional,P*=As supplied
,,Dundee Mains Loan,,,,,,,,,,,,,,,,,,,,,,,
Date,time,"Nitric oxide",status,unit,"Nitrogen dioxide",status,unit,"Nitrogen oxides as nitrogen dioxide",status,unit
 
01-01-2018,01:00,1.59655,R,ugm-3,8.88914,R,ugm-3,11.33714,R,ugm-3
01-01-2018,02:00,1.34110,R,ugm-3,10.35590,R,ugm-3,12.41222,R,ugm-3
01-01-2018,03:00,1.10162,R,ugm-3,9.01275,R,ugm-3,10.70187,R,ugm-3
01-01-2018,04:00,0.76634,R,ugm-3,10.03994,R,ugm-3,11.21498,R,ugm-3
01-01-2018,05:00,0.67055,R,ugm-3,10.62662,R,ugm-3,11.65478,R,ugm-3
01-01-2018,06:00,0.76634,R,ugm-3,8.28072,R,ugm-3,9.45577,R,ugm-3
01-01-2018,07:00,1.48479,R,ugm-3,7.03252,R,ugm-3,9.30916,R,ugm-3
01-01-2018,08:00,1.10162,R,ugm-3,11.94477,R,ugm-3,13.63389,R,ugm-3
01-01-2018,09:00,0.81424,R,ugm-3,11.94561,R,ugm-3,13.19409,R,ugm-3
01-01-2018,10:00,0.91003,R,ugm-3,10.03952,R,ugm-3,11.43488,R,ugm-3
01-01-2018,11:00,1.29320,R,ugm-3,8.93889,R,ugm-3,10.92178,R,ugm-3
01-01-2018,12:00,1.29320,R,ugm-3,12.97042,R,ugm-3,14.95330,R,ugm-3
01-01-2018,13:00,1.48479,R,ugm-3,13.26306,R,ugm-3,15.53971,R,ugm-3
01-01-2018,14:00,1.58058,R,ugm-3,11.21037,R,ugm-3,13.63389,R,ugm-3
01-01-2018,15:00,1.38900,R,ugm-3,14.21625,R,ugm-3,16.34601,R,ugm-3
01-01-2018,16:00,0.91003,R,ugm-3,14.58415,R,ugm-3,15.97951,R,ugm-3
01-01-2018,17:00,0.86214,R,ugm-3,19.49542,R,ugm-3,20.81734,R,ugm-3
01-01-2018,18:00,0.91003,R,ugm-3,21.76760,R,ugm-3,23.16296,R,ugm-3
01-01-2018,19:00,2.29903,R,ugm-3,19.27133,R,ugm-3,22.79646,R,ugm-3
01-01-2018,20:00,1.72427,R,ugm-3,16.63419,R,ugm-3,19.27803,R,ugm-3
01-01-2018,21:00,1.24531,R,ugm-3,15.09627,R,ugm-3,17.00572,R,ugm-3
01-01-2018,22:00,1.10162,R,ugm-3,14.36369,R,ugm-3,16.05281,R,ugm-3
01-01-2018,23:00,0.76634,R,ugm-3,13.04525,R,ugm-3,14.22030,R,ugm-3
01-01-2018,24:00,0.86214,R,ugm-3,9.81975,R,ugm-3,11.14168,R,ugm-3
02-01-2018,01:00,0.70823,R,ugm-3,6.20494,R,ugm-3,7.29088,R,ugm-3
02-01-2018,02:00,0.32192,R,ugm-3,9.26041,R,ugm-3,9.75401,R,ugm-3
02-01-2018,03:00,0.91748,R,ugm-3,12.18972,R,ugm-3,13.59650,R,ugm-3
02-01-2018,04:00,0.82090,R,ugm-3,12.26391,R,ugm-3,13.52261,R,ugm-3
02-01-2018,05:00,0.86919,R,ugm-3,21.05715,R,ugm-3,22.38989,R,ugm-3
02-01-2018,06:00,0.24144,R,ugm-3,11.23116,R,ugm-3,11.60136,R,ugm-3
02-01-2018,07:00,2.31784,R,ugm-3,27.70321,R,ugm-3,31.25717,R,ugm-3
02-01-2018,08:00,4.63567,R,ugm-3,31.68643,R,ugm-3,38.79436,R,ugm-3
02-01-2018,09:00,15.45225,R,ugm-3,51.97437,R,ugm-3,75.66748,R,ugm-3
02-01-2018,10:00,22.35747,R,ugm-3,72.27421,R,ugm-3,106.55518,R,ugm-3
02-01-2018,11:00,18.92900,R,ugm-3,63.19568,R,ugm-3,92.21974,R,ugm-3
02-01-2018,12:00,9.89910,R,ugm-3,54.06030,R,ugm-3,69.23870,R,ugm-3
02-01-2018,13:00,1.11063,R,ugm-3,15.21879,R,ugm-3,16.92173,R,ugm-3
02-01-2018,14:00,3.66991,R,ugm-3,52.67527,R,ugm-3,58.30239,R,ugm-3
02-01-2018,15:00,2.22126,R,ugm-3,41.59558,R,ugm-3,45.00146,R,ugm-3
02-01-2018,16:00,1.06234,R,ugm-3,30.66279,R,ugm-3,32.29169,R,ugm-3
02-01-2018,17:00,1.49694,R,ugm-3,38.42034,R,ugm-3,40.71561,R,ugm-3
02-01-2018,18:00,2.46270,R,ugm-3,41.52095,R,ugm-3,45.29704,R,ugm-3
02-01-2018,19:00,21.58486,R,ugm-3,96.66159,R,ugm-3,129.75791,R,ugm-3
02-01-2018,20:00,24.82017,R,ugm-3,89.18845,R,ugm-3,127.24551,R,ugm-3
02-01-2018,21:00,9.31964,R,ugm-3,65.29396,R,ugm-3,79.58386,R,ugm-3
02-01-2018,22:00,3.33189,R,ugm-3,48.61213,R,ugm-3,53.72096,R,ugm-3
02-01-2018,23:00,1.15892,R,ugm-3,27.04169,R,ugm-3,28.81867,R,ugm-3
02-01-2018,24:00,0.33802,R,ugm-3,9.67909,R,ugm-3,10.19738,R,ugm-3
03-01-2018,01:00,0.90870,R,ugm-3,5.26091,R,ugm-3,6.65422,R,ugm-3
03-01-2018,02:00,1.62267,R,ugm-3,8.43678,R,ugm-3,10.92484,R,ugm-3
03-01-2018,03:00,1.46040,R,ugm-3,4.98604,R,ugm-3,7.22529,R,ugm-3
03-01-2018,04:00,0.92492,R,ugm-3,3.34901,R,ugm-3,4.76720,R,ugm-3
03-01-2018,05:00,0.77888,R,ugm-3,3.20050,R,ugm-3,4.39477,R,ugm-3
03-01-2018,06:00,0.87624,R,ugm-3,4.98789,R,ugm-3,6.33144,R,ugm-3
03-01-2018,07:00,1.11964,R,ugm-3,9.97778,R,ugm-3,11.69455,R,ugm-3
03-01-2018,08:00,1.07096,R,ugm-3,16.45836,R,ugm-3,18.10048,R,ugm-3
03-01-2018,09:00,0.97360,R,ugm-3,24.50332,R,ugm-3,25.99616,R,ugm-3
03-01-2018,10:00,3.01817,R,ugm-3,38.72396,R,ugm-3,43.35175,R,ugm-3
03-01-2018,11:00,3.26157,R,ugm-3,27.77352,R,ugm-3,32.77452,R,ugm-3
03-01-2018,12:00,3.84573,R,ugm-3,23.97280,R,ugm-3,29.86951,R,ugm-3
03-01-2018,13:00,3.26157,R,ugm-3,26.50723,R,ugm-3,31.50824,R,ugm-3
03-01-2018,14:00,3.74837,R,ugm-3,29.18724,R,ugm-3,34.93466,R,ugm-3
03-01-2018,15:00,2.92081,R,ugm-3,28.37050,R,ugm-3,32.84901,R,ugm-3
03-01-2018,16:00,7.59410,R,ugm-3,78.78376,R,ugm-3,90.42789,R,ugm-3
03-01-2018,17:00,50.18921,R,ugm-3,111.87022,R,ugm-3,188.82594,R,ugm-3
03-01-2018,18:00,54.37570,R,ugm-3,109.17540,R,ugm-3,192.55032,R,ugm-3
03-01-2018,19:00,10.75831,R,ugm-3,87.71224,R,ugm-3,104.20808,R,ugm-3
03-01-2018,20:00,7.15598,R,ugm-3,68.13343,R,ugm-3,79.10578,R,ugm-3
03-01-2018,21:00,8.03222,R,ugm-3,40.79372,R,ugm-3,53.10962,R,ugm-3
03-01-2018,22:00,4.62461,R,ugm-3,40.65555,R,ugm-3,47.74652,R,ugm-3
03-01-2018,23:00,0.68152,R,ugm-3,25.39810,R,ugm-3,26.44308,R,ugm-3
03-01-2018,24:00,0.38944,R,ugm-3,21.97259,R,ugm-3,22.56973,R,ugm-3
04-01-2018,01:00,0.78515,R,ugm-3,12.91136,R,ugm-3,14.11524,R,ugm-3
04-01-2018,02:00,1.04687,R,ugm-3,15.01277,R,ugm-3,16.61795,R,ugm-3
04-01-2018,03:00,1.81566,R,ugm-3,18.31380,R,ugm-3,21.09778,R,ugm-3
04-01-2018,04:00,1.42309,R,ugm-3,22.06915,R,ugm-3,24.25119,R,ugm-3
04-01-2018,05:00,2.99339,R,ugm-3,33.40122,R,ugm-3,37.99103,R,ugm-3
04-01-2018,06:00,2.84618,R,ugm-3,35.35382,R,ugm-3,39.71789,R,ugm-3
04-01-2018,07:00,6.67379,R,ugm-3,36.39235,R,ugm-3,46.62535,R,ugm-3
04-01-2018,08:00,6.33029,R,ugm-3,31.88861,R,ugm-3,41.59492,R,ugm-3
04-01-2018,09:00,10.20697,R,ugm-3,50.79628,R,ugm-3,66.44675,R,ugm-3
04-01-2018,10:00,10.45233,R,ugm-3,46.44077,R,ugm-3,62.46746,R,ugm-3
04-01-2018,11:00,6.87008,R,ugm-3,39.16970,R,ugm-3,49.70367,R,ugm-3
04-01-2018,12:00,8.24409,R,ugm-3,37.36323,R,ugm-3,50.00400,R,ugm-3
04-01-2018,13:00,8.78389,R,ugm-3,40.06437,R,ugm-3,53.53281,R,ugm-3
04-01-2018,14:00,,,,,,,,,
04-01-2018,15:00,3.33690,R,ugm-3,26.11723,R,ugm-3,31.23373,R,ugm-3
04-01-2018,16:00,2.84618,R,ugm-3,29.57257,R,ugm-3,33.93665,R,ugm-3
04-01-2018,17:00,8.14595,R,ugm-3,32.10788,R,ugm-3,44.59816,R,ugm-3
04-01-2018,18:00,3.48411,R,ugm-3,28.44426,R,ugm-3,33.78649,R,ugm-3
04-01-2018,19:00,3.58226,R,ugm-3,31.82258,R,ugm-3,37.31530,R,ugm-3
04-01-2018,20:00,2.69896,R,ugm-3,28.37176,R,ugm-3,32.51011,R,ugm-3
04-01-2018,21:00,1.66845,R,ugm-3,19.44051,R,ugm-3,21.99876,R,ugm-3
04-01-2018,22:00,0.78515,R,ugm-3,31.23114,R,ugm-3,32.43503,R,ugm-3
04-01-2018,23:00,1.47216,R,ugm-3,24.99715,R,ugm-3,27.25443,R,ugm-3
04-01-2018,24:00,0.39258,R,ugm-3,19.97027,R,ugm-3,20.57222,R,ugm-3
05-01-2018,01:00,1.68908,R,ugm-3,48.10465,R,ugm-3,50.69453,R,ugm-3
05-01-2018,02:00,0.64964,R,ugm-3,23.75475,R,ugm-3,24.75086,R,ugm-3
05-01-2018,03:00,0.19489,R,ugm-3,9.91463,R,ugm-3,10.21346,R,ugm-3
05-01-2018,04:00,1.02319,R,ugm-3,25.71672,R,ugm-3,27.28559,R,ugm-3
05-01-2018,05:00,1.26681,R,ugm-3,14.01146,R,ugm-3,15.95387,R,ugm-3
05-01-2018,06:00,3.02085,R,ugm-3,24.96476,R,ugm-3,29.59666,R,ugm-3
05-01-2018,07:00,5.50573,R,ugm-3,28.90794,R,ugm-3,37.34994,R,ugm-3
05-01-2018,08:00,6.38275,R,ugm-3,36.88204,R,ugm-3,46.66879,R,ugm-3
05-01-2018,09:00,6.18786,R,ugm-3,46.49972,R,ugm-3,55.98764,R,ugm-3
05-01-2018,10:00,6.38275,R,ugm-3,42.47335,R,ugm-3,52.26010,R,ugm-3
05-01-2018,11:00,5.50573,R,ugm-3,32.63547,R,ugm-3,41.07748,R,ugm-3
05-01-2018,12:00,5.11595,R,ugm-3,23.91429,R,ugm-3,31.75863,R,ugm-3
05-01-2018,13:00,3.06957,R,ugm-3,29.06490,R,ugm-3,33.77150,R,ugm-3
05-01-2018,14:00,4.04404,R,ugm-3,22.42673,R,ugm-3,28.62750,R,ugm-3
05-01-2018,15:00,4.62871,R,ugm-3,24.13952,R,ugm-3,31.23678,R,ugm-3
05-01-2018,16:00,3.70297,R,ugm-3,17.65658,R,ugm-3,23.33440,R,ugm-3
05-01-2018,17:00,5.06722,R,ugm-3,23.61624,R,ugm-3,31.38588,R,ugm-3
05-01-2018,18:00,3.70297,R,ugm-3,25.78262,R,ugm-3,31.46043,R,ugm-3
05-01-2018,19:00,2.29000,R,ugm-3,18.18300,R,ugm-3,21.69428,R,ugm-3
05-01-2018,20:00,1.90021,R,ugm-3,13.04026,R,ugm-3,15.95387,R,ugm-3
05-01-2018,21:00,2.19255,R,ugm-3,9.53543,R,ugm-3,12.89729,R,ugm-3
05-01-2018,22:00,1.75404,R,ugm-3,10.58055,R,ugm-3,13.27004,R,ugm-3
05-01-2018,23:00,1.46170,R,ugm-3,5.95934,R,ugm-3,8.20059,R,ugm-3
05-01-2018,24:00,1.21808,R,ugm-3,4.39457,R,ugm-3,6.26227,R,ugm-3
06-01-2018,01:00,1.28999,R,ugm-3,3.45021,R,ugm-3,5.42817,R,ugm-3
06-01-2018,02:00,1.28999,R,ugm-3,6.01626,R,ugm-3,7.99421,R,ugm-3
06-01-2018,03:00,1.11262,R,ugm-3,2.58720,R,ugm-3,4.29319,R,ugm-3
06-01-2018,04:00,1.30612,R,ugm-3,2.36453,R,ugm-3,4.36721,R,ugm-3
06-01-2018,05:00,1.25774,R,ugm-3,2.88282,R,ugm-3,4.81133,R,ugm-3
06-01-2018,06:00,1.30612,R,ugm-3,2.58659,R,ugm-3,4.58927,R,ugm-3
06-01-2018,07:00,1.40287,R,ugm-3,5.54710,R,ugm-3,7.69813,R,ugm-3
06-01-2018,08:00,1.30612,R,ugm-3,6.87978,R,ugm-3,8.88246,R,ugm-3
06-01-2018,09:00,1.30612,R,ugm-3,7.84204,R,ugm-3,9.84473,R,ugm-3
06-01-2018,10:00,1.78986,R,ugm-3,10.20917,R,ugm-3,12.95359,R,ugm-3
06-01-2018,11:00,2.46711,R,ugm-3,14.13011,R,ugm-3,17.91296,R,ugm-3
06-01-2018,12:00,2.08011,R,ugm-3,5.84104,R,ugm-3,9.03050,R,ugm-3
06-01-2018,13:00,3.04760,R,ugm-3,7.17036,R,ugm-3,11.84328,R,ugm-3
06-01-2018,14:00,4.35372,R,ugm-3,15.67858,R,ugm-3,22.35419,R,ugm-3
06-01-2018,15:00,5.36958,R,ugm-3,10.71600,R,ugm-3,18.94925,R,ugm-3
06-01-2018,16:00,1.98336,R,ugm-3,4.58300,R,ugm-3,7.62411,R,ugm-3
06-01-2018,17:00,1.54799,R,ugm-3,5.32458,R,ugm-3,7.69813,R,ugm-3
06-01-2018,18:00,1.20937,R,ugm-3,6.21390,R,ugm-3,8.06823,R,ugm-3
06-01-2018,19:00,0.96749,R,ugm-3,11.10001,R,ugm-3,12.58348,R,ugm-3
06-01-2018,20:00,0.91912,R,ugm-3,5.69667,R,ugm-3,7.10597,R,ugm-3
06-01-2018,21:00,2.80573,R,ugm-3,7.83730,R,ugm-3,12.13936,R,ugm-3
06-01-2018,22:00,0.91912,R,ugm-3,2.80987,R,ugm-3,4.21917,R,ugm-3
06-01-2018,23:00,0.82237,R,ugm-3,3.40234,R,ugm-3,4.66329,R,ugm-3
06-01-2018,24:00,0.67725,R,ugm-3,4.06899,R,ugm-3,5.10741,R,ugm-3
07-01-2018,01:00,3.39383,R,ugm-3,,,,,,
07-01-2018,02:00,0.38421,R,ugm-3,22.63379,R,ugm-3,23.22290,R,ugm-3
07-01-2018,03:00,0.52829,R,ugm-3,25.79342,R,ugm-3,26.60345,R,ugm-3
07-01-2018,04:00,0.19210,R,ugm-3,21.97297,R,ugm-3,22.26753,R,ugm-3
07-01-2018,05:00,0.33618,R,ugm-3,12.34531,R,ugm-3,12.86078,R,ugm-3
07-01-2018,06:00,0.43223,R,ugm-3,12.41851,R,ugm-3,13.08126,R,ugm-3
07-01-2018,07:00,0.86447,R,ugm-3,17.04705,R,ugm-3,18.37255,R,ugm-3
07-01-2018,08:00,0.57631,R,ugm-3,19.03218,R,ugm-3,19.91584,R,ugm-3
07-01-2018,09:00,1.05657,R,ugm-3,33.14081,R,ugm-3,34.76086,R,ugm-3
07-01-2018,10:00,3.55392,R,ugm-3,41.43748,R,ugm-3,46.88674,R,ugm-3
07-01-2018,11:00,4.27431,R,ugm-3,23.87109,R,ugm-3,30.42494,R,ugm-3
07-01-2018,12:00,,,,,,,,,
07-01-2018,13:00,7.54007,R,ugm-3,32.38585,R,ugm-3,43.94714,R,ugm-3
07-01-2018,14:00,9.36506,R,ugm-3,35.83425,R,ugm-3,50.19380,R,ugm-3
07-01-2018,15:00,15.36830,R,ugm-3,39.19622,R,ugm-3,62.76063,R,ugm-3
07-01-2018,16:00,30.73661,R,ugm-3,75.30586,R,ugm-3,122.43466,R,ugm-3
07-01-2018,17:00,25.50178,R,ugm-3,101.70503,R,ugm-3,140.80721,R,ugm-3
07-01-2018,18:00,22.33207,R,ugm-3,94.80676,R,ugm-3,129.04878,R,ugm-3
07-01-2018,19:00,8.74072,R,ugm-3,75.37390,R,ugm-3,88.77615,R,ugm-3
07-01-2018,20:00,18.10578,R,ugm-3,76.44728,R,ugm-3,104.20909,R,ugm-3
07-01-2018,21:00,9.79729,R,ugm-3,77.35487,R,ugm-3,92.37717,R,ugm-3
07-01-2018,22:00,5.81114,R,ugm-3,69.50375,R,ugm-3,78.41404,R,ugm-3
07-01-2018,23:00,5.28285,R,ugm-3,68.84397,R,ugm-3,76.94423,R,ugm-3
07-01-2018,24:00,4.17826,R,ugm-3,67.30409,R,ugm-3,73.71066,R,ugm-3
08-01-2018,01:00,0.38142,R,ugm-3,50.19526,R,ugm-3,50.78009,R,ugm-3
08-01-2018,02:00,1.46210,R,ugm-3,40.36672,R,ugm-3,42.60858,R,ugm-3
08-01-2018,03:00,0.52445,R,ugm-3,47.13051,R,ugm-3,47.93465,R,ugm-3
08-01-2018,04:00,1.95477,R,ugm-3,60.69672,R,ugm-3,63.69399,R,ugm-3
08-01-2018,05:00,1.23961,R,ugm-3,46.69059,R,ugm-3,48.59129,R,ugm-3
08-01-2018,06:00,7.62836,R,ugm-3,48.78710,R,ugm-3,60.48376,R,ugm-3
08-01-2018,07:00,2.66993,R,ugm-3,55.58737,R,ugm-3,59.68120,R,ugm-3
08-01-2018,08:00,35.90098,R,ugm-3,93.13415,R,ugm-3,148.18155,R,ugm-3
08-01-2018,09:00,140.50489,R,ugm-3,114.12203,R,ugm-3,329.55986,R,ugm-3
08-01-2018,10:00,277.19560,R,ugm-3,127.71686,R,ugm-3,552.74419,R,ugm-3
08-01-2018,11:00,236.28851,R,ugm-3,120.61757,R,ugm-3,482.92157,R,ugm-3
08-01-2018,12:00,180.69683,R,ugm-3,106.77742,R,ugm-3,383.84202,R,ugm-3
08-01-2018,13:00,19.07091,R,ugm-3,56.04848,R,ugm-3,85.29012,R,ugm-3
08-01-2018,14:00,11.63325,R,ugm-3,47.24283,R,ugm-3,65.08023,R,ugm-3
08-01-2018,15:00,16.49633,R,ugm-3,69.77272,R,ugm-3,95.06675,R,ugm-3
08-01-2018,16:00,4.19560,R,ugm-3,41.57445,R,ugm-3,48.00761,R,ugm-3
08-01-2018,17:00,2.28851,R,ugm-3,32.67911,R,ugm-3,36.18811,R,ugm-3
08-01-2018,18:00,2.05012,R,ugm-3,33.26351,R,ugm-3,36.40699,R,ugm-3
08-01-2018,19:00,1.71638,R,ugm-3,31.00277,R,ugm-3,33.63451,R,ugm-3
08-01-2018,20:00,1.23961,R,ugm-3,29.03429,R,ugm-3,30.93500,R,ugm-3
08-01-2018,21:00,1.47800,R,ugm-3,27.72029,R,ugm-3,29.98652,R,ugm-3
08-01-2018,22:00,1.43032,R,ugm-3,29.90923,R,ugm-3,32.10236,R,ugm-3
08-01-2018,23:00,1.62103,R,ugm-3,25.67698,R,ugm-3,28.16252,R,ugm-3
08-01-2018,24:00,0.85819,R,ugm-3,11.67099,R,ugm-3,12.98686,R,ugm-3
09-01-2018,01:00,2.71351,R,ugm-3,30.60556,R,ugm-3,34.76621,R,ugm-3
09-01-2018,02:00,1.19899,R,ugm-3,21.72534,R,ugm-3,23.56377,R,ugm-3
09-01-2018,03:00,0.14199,R,ugm-3,7.67712,R,ugm-3,7.89483,R,ugm-3
09-01-2018,04:00,0.33130,R,ugm-3,14.91952,R,ugm-3,15.42751,R,ugm-3
09-01-2018,05:00,0.37863,R,ugm-3,10.64603,R,ugm-3,11.22659,R,ugm-3
09-01-2018,06:00,0.85192,R,ugm-3,20.06048,R,ugm-3,21.36673,R,ugm-3
09-01-2018,07:00,0.33130,R,ugm-3,9.84945,R,ugm-3,10.35743,R,ugm-3
09-01-2018,08:00,0.52061,R,ugm-3,8.25544,R,ugm-3,9.05370,R,ugm-3
09-01-2018,09:00,1.13589,R,ugm-3,11.80267,R,ugm-3,13.54434,R,ugm-3
09-01-2018,10:00,0.75726,R,ugm-3,8.61689,R,ugm-3,9.77800,R,ugm-3
09-01-2018,11:00,0.89924,R,ugm-3,8.61647,R,ugm-3,9.99529,R,ugm-3
09-01-2018,12:00,0.80459,R,ugm-3,8.97889,R,ugm-3,10.21257,R,ugm-3
09-01-2018,13:00,0.89924,R,ugm-3,9.41319,R,ugm-3,10.79201,R,ugm-3
09-01-2018,14:00,0.99390,R,ugm-3,8.90590,R,ugm-3,10.42986,R,ugm-3
09-01-2018,15:00,0.94657,R,ugm-3,9.77520,R,ugm-3,11.22659,R,ugm-3
09-01-2018,16:00,4.40156,R,ugm-3,19.47055,R,ugm-3,26.21952,R,ugm-3
09-01-2018,17:00,4.44889,R,ugm-3,14.54520,R,ugm-3,21.36673,R,ugm-3
09-01-2018,18:00,5.72676,R,ugm-3,20.19093,R,ugm-3,28.97184,R,ugm-3
09-01-2018,19:00,5.01683,R,ugm-3,17.65800,R,ugm-3,25.35036,R,ugm-3
09-01-2018,20:00,5.63210,R,ugm-3,20.77065,R,ugm-3,29.40642,R,ugm-3
09-01-2018,21:00,7.19394,R,ugm-3,24.38752,R,ugm-3,35.41808,R,ugm-3
09-01-2018,22:00,6.95730,R,ugm-3,28.87885,R,ugm-3,39.54656,R,ugm-3
09-01-2018,23:00,5.91607,R,ugm-3,24.82587,R,ugm-3,33.89705,R,ugm-3
09-01-2018,24:00,5.72676,R,ugm-3,29.89650,R,ugm-3,38.67741,R,ugm-3
10-01-2018,01:00,5.32439,R,ugm-3,25.38906,R,ugm-3,33.55301,R,ugm-3
10-01-2018,02:00,12.21477,R,ugm-3,38.59866,R,ugm-3,57.32772,R,ugm-3
10-01-2018,03:00,13.15437,R,ugm-3,43.46113,R,ugm-3,63.63089,R,ugm-3
10-01-2018,04:00,9.77182,R,ugm-3,41.31391,R,ugm-3,56.29716,R,ugm-3
10-01-2018,05:00,6.38927,R,ugm-3,39.38239,R,ugm-3,49.17913,R,ugm-3
10-01-2018,06:00,14.23491,R,ugm-3,42.59523,R,ugm-3,64.42178,R,ugm-3
10-01-2018,07:00,32.74499,R,ugm-3,47.07148,R,ugm-3,97.27976,R,ugm-3
10-01-2018,08:00,52.94635,R,ugm-3,51.97426,R,ugm-3,133.15752,R,ugm-3
10-01-2018,09:00,40.68459,R,ugm-3,48.84606,R,ugm-3,111.22823,R,ugm-3
10-01-2018,10:00,52.85239,R,ugm-3,47.30107,R,ugm-3,128.34027,R,ugm-3
10-01-2018,11:00,56.28192,R,ugm-3,43.91191,R,ugm-3,130.20965,R,ugm-3
10-01-2018,12:00,76.76515,R,ugm-3,41.91154,R,ugm-3,159.61646,R,ugm-3
10-01-2018,13:00,62.62420,R,ugm-3,40.22675,R,ugm-3,136.24919,R,ugm-3
10-01-2018,14:00,18.79196,R,ugm-3,31.50959,R,ugm-3,60.32352,R,ugm-3
10-01-2018,15:00,42.14097,R,ugm-3,36.97847,R,ugm-3,101.59372,R,ugm-3
10-01-2018,16:00,44.02016,R,ugm-3,40.49612,R,ugm-3,107.99276,R,ugm-3
10-01-2018,17:00,28.65774,R,ugm-3,39.46195,R,ugm-3,83.40320,R,ugm-3
10-01-2018,18:00,59.24165,R,ugm-3,49.79912,R,ugm-3,140.63505,R,ugm-3
10-01-2018,19:00,56.89266,R,ugm-3,46.42662,R,ugm-3,133.66082,R,ugm-3
10-01-2018,20:00,33.87251,R,ugm-3,51.23839,R,ugm-3,103.17551,R,ugm-3
10-01-2018,21:00,,,,,,,,,
10-01-2018,22:00,21.00001,R,ugm-3,58.68115,R,ugm-3,90.88073,R,ugm-3
10-01-2018,23:00,6.15437,R,ugm-3,38.95167,R,ugm-3,48.38824,R,ugm-3
10-01-2018,24:00,3.61745,R,ugm-3,36.15492,R,ugm-3,41.70160,R,ugm-3
11-01-2018,01:00,4.04137,R,ugm-3,22.54124,R,ugm-3,28.73792,R,ugm-3
11-01-2018,02:00,2.92222,R,ugm-3,17.69129,R,ugm-3,22.17197,R,ugm-3
11-01-2018,03:00,2.89114,R,ugm-3,11.69639,R,ugm-3,16.12940,R,ugm-3
11-01-2018,04:00,2.79787,R,ugm-3,9.19873,R,ugm-3,13.48874,R,ugm-3
11-01-2018,05:00,2.84450,R,ugm-3,7.12890,R,ugm-3,11.49041,R,ugm-3
11-01-2018,06:00,3.17092,R,ugm-3,34.24821,R,ugm-3,39.11022,R,ugm-3
11-01-2018,07:00,5.82890,R,ugm-3,42.51953,R,ugm-3,51.45706,R,ugm-3
11-01-2018,08:00,23.68866,R,ugm-3,68.80446,R,ugm-3,105.12656,R,ugm-3
11-01-2018,09:00,13.70958,R,ugm-3,65.47819,R,ugm-3,86.49924,R,ugm-3
11-01-2018,10:00,118.21013,R,ugm-3,92.58990,R,ugm-3,273.84291,R,ugm-3
11-01-2018,11:00,46.49132,R,ugm-3,76.94774,R,ugm-3,148.23344,R,ugm-3
11-01-2018,12:00,58.38228,R,ugm-3,71.91846,R,ugm-3,161.43671,R,ugm-3
11-01-2018,13:00,103.84772,R,ugm-3,79.14156,R,ugm-3,238.37251,R,ugm-3
11-01-2018,14:00,109.30357,R,ugm-3,90.04567,R,ugm-3,257.64214,R,ugm-3
11-01-2018,15:00,92.18991,R,ugm-3,89.45149,R,ugm-3,230.80739,R,ugm-3
11-01-2018,16:00,137.60872,R,ugm-3,95.81830,R,ugm-3,306.81539,R,ugm-3
11-01-2018,17:00,123.94577,R,ugm-3,92.35965,R,ugm-3,282.40719,R,ugm-3
11-01-2018,18:00,228.53959,R,ugm-3,106.48194,R,ugm-3,456.90443,R,ugm-3
11-01-2018,19:00,206.01671,R,ugm-3,124.31619,R,ugm-3,440.20408,R,ugm-3
11-01-2018,20:00,132.61918,R,ugm-3,92.04978,R,ugm-3,295.39635,R,ugm-3
11-01-2018,21:00,101.93584,R,ugm-3,84.00003,R,ugm-3,240.29947,R,ugm-3
11-01-2018,22:00,69.90019,R,ugm-3,79.59391,R,ugm-3,186.77271,R,ugm-3
11-01-2018,23:00,4.42997,R,ugm-3,34.81562,R,ugm-3,41.60814,R,ugm-3
11-01-2018,24:00,11.79770,R,ugm-3,31.01233,R,ugm-3,49.10188,R,ugm-3
12-01-2018,01:00,57.51376,R,ugm-3,69.54768,R,ugm-3,157.73421,R,ugm-3
12-01-2018,02:00,50.47882,R,ugm-3,59.55508,R,ugm-3,136.95486,R,ugm-3
12-01-2018,03:00,28.41748,R,ugm-3,47.52574,R,ugm-3,91.09859,R,ugm-3
12-01-2018,04:00,0.87937,R,ugm-3,13.66946,R,ugm-3,15.01781,R,ugm-3
12-01-2018,05:00,1.11078,R,ugm-3,15.22728,R,ugm-3,16.93045,R,ugm-3
12-01-2018,06:00,1.20335,R,ugm-3,17.91890,R,ugm-3,19.76400,R,ugm-3
12-01-2018,07:00,0.50911,R,ugm-3,22.52532,R,ugm-3,23.30594,R,ugm-3
12-01-2018,08:00,6.24814,R,ugm-3,41.56520,R,ugm-3,51.14556,R,ugm-3
12-01-2018,09:00,6.61840,R,ugm-3,47.23129,R,ugm-3,57.37936,R,ugm-3
12-01-2018,10:00,1.80502,R,ugm-3,28.33054,R,ugm-3,31.09820,R,ugm-3
12-01-2018,11:00,6.06301,R,ugm-3,31.36494,R,ugm-3,40.66143,R,ugm-3
12-01-2018,12:00,13.42194,R,ugm-3,34.24916,R,ugm-3,54.82917,R,ugm-3
12-01-2018,13:00,6.10929,R,ugm-3,27.75204,R,ugm-3,37.11949,R,ugm-3
12-01-2018,14:00,2.12900,R,ugm-3,20.60823,R,ugm-3,23.87265,R,ugm-3
12-01-2018,15:00,4.07286,R,ugm-3,33.28304,R,ugm-3,39.52801,R,ugm-3
12-01-2018,16:00,6.10929,R,ugm-3,37.52778,R,ugm-3,46.89523,R,ugm-3
12-01-2018,17:00,6.84982,R,ugm-3,41.42188,R,ugm-3,51.92478,R,ugm-3
12-01-2018,18:00,8.00688,R,ugm-3,44.96064,R,ugm-3,57.23768,R,ugm-3
12-01-2018,19:00,6.01673,R,ugm-3,36.74881,R,ugm-3,45.97433,R,ugm-3
12-01-2018,20:00,4.67454,R,ugm-3,35.05236,R,ugm-3,42.21988,R,ugm-3
12-01-2018,21:00,2.31413,R,ugm-3,26.13315,R,ugm-3,29.68142,R,ugm-3
12-01-2018,22:00,1.24963,R,ugm-3,25.00264,R,ugm-3,26.91871,R,ugm-3
12-01-2018,23:00,0.83309,R,ugm-3,11.89862,R,ugm-3,13.17600,R,ugm-3
12-01-2018,24:00,0.50911,R,ugm-3,12.96209,R,ugm-3,13.74271,R,ugm-3
13-01-2018,01:00,0.67370,R,ugm-3,17.34095,R,ugm-3,18.37393,R,ugm-3
13-01-2018,02:00,0.73494,R,ugm-3,20.62185,R,ugm-3,21.74874,R,ugm-3
13-01-2018,03:00,1.19428,R,ugm-3,21.65181,R,ugm-3,23.48301,R,ugm-3
13-01-2018,04:00,1.46988,R,ugm-3,25.79927,R,ugm-3,28.05306,R,ugm-3
13-01-2018,05:00,1.05648,R,ugm-3,17.92583,R,ugm-3,19.54574,R,ugm-3
13-01-2018,06:00,1.83735,R,ugm-3,25.02490,R,ugm-3,27.84214,R,ugm-3
13-01-2018,07:00,3.03163,R,ugm-3,27.83405,R,ugm-3,32.48249,R,ugm-3
13-01-2018,08:00,1.97516,R,ugm-3,24.67299,R,ugm-3,27.70152,R,ugm-3
13-01-2018,09:00,2.43449,R,ugm-3,21.85943,R,ugm-3,25.59227,R,ugm-3
13-01-2018,10:00,4.91492,R,ugm-3,26.56348,R,ugm-3,34.09959,R,ugm-3
13-01-2018,11:00,7.48722,R,ugm-3,31.40790,R,ugm-3,42.88814,R,ugm-3
13-01-2018,12:00,10.84039,R,ugm-3,35.19561,R,ugm-3,51.81731,R,ugm-3
13-01-2018,13:00,9.00304,R,ugm-3,33.09126,R,ugm-3,46.89572,R,ugm-3
13-01-2018,14:00,6.43074,R,ugm-3,32.88719,R,ugm-3,42.74752,R,ugm-3
13-01-2018,15:00,6.10920,R,ugm-3,33.09898,R,ugm-3,42.46629,R,ugm-3
13-01-2018,16:00,6.79821,R,ugm-3,38.29996,R,ugm-3,48.72374,R,ugm-3
13-01-2018,17:00,4.54745,R,ugm-3,36.33733,R,ugm-3,43.30999,R,ugm-3
13-01-2018,18:00,3.99625,R,ugm-3,32.89368,R,ugm-3,39.02118,R,ugm-3
13-01-2018,19:00,3.26130,R,ugm-3,27.83344,R,ugm-3,32.83403,R,ugm-3
13-01-2018,20:00,2.66416,R,ugm-3,30.08490,R,ugm-3,34.16989,R,ugm-3
13-01-2018,21:00,3.30724,R,ugm-3,32.96583,R,ugm-3,38.03686,R,ugm-3
13-01-2018,22:00,4.91492,R,ugm-3,31.69599,R,ugm-3,39.23210,R,ugm-3
13-01-2018,23:00,0.82681,R,ugm-3,15.46565,R,ugm-3,16.73341,R,ugm-3
13-01-2018,24:00,0.41341,R,ugm-3,12.79503,R,ugm-3,13.42891,R,ugm-3
14-01-2018,01:00,2.06653,R,ugm-3,23.62617,R,ugm-3,26.79480,R,ugm-3
14-01-2018,02:00,4.55852,R,ugm-3,28.92285,R,ugm-3,35.91248,R,ugm-3
14-01-2018,03:00,1.41314,R,ugm-3,20.44133,R,ugm-3,22.60811,R,ugm-3
14-01-2018,04:00,1.45873,R,ugm-3,16.18475,R,ugm-3,18.42143,R,ugm-3
14-01-2018,05:00,1.00287,R,ugm-3,12.97613,R,ugm-3,14.51385,R,ugm-3
14-01-2018,06:00,0.45585,R,ugm-3,11.37265,R,ugm-3,12.07162,R,ugm-3
14-01-2018,07:00,0.27351,R,ugm-3,9.69845,R,ugm-3,10.11783,R,ugm-3
14-01-2018,08:00,0.50144,R,ugm-3,10.04675,R,ugm-3,10.81561,R,ugm-3
14-01-2018,09:00,0.77495,R,ugm-3,14.44206,R,ugm-3,15.63030,R,ugm-3
14-01-2018,10:00,1.41314,R,ugm-3,18.27821,R,ugm-3,20.44499,R,ugm-3
14-01-2018,11:00,2.73511,R,ugm-3,23.85703,R,ugm-3,28.05081,R,ugm-3
14-01-2018,12:00,1.82341,R,ugm-3,16.53269,R,ugm-3,19.32854,R,ugm-3
14-01-2018,13:00,2.05133,R,ugm-3,15.34587,R,ugm-3,18.49121,R,ugm-3
14-01-2018,14:00,1.73224,R,ugm-3,14.85825,R,ugm-3,17.51431,R,ugm-3
14-01-2018,15:00,1.91458,R,ugm-3,14.64844,R,ugm-3,17.58409,R,ugm-3
14-01-2018,16:00,1.77782,R,ugm-3,15.83503,R,ugm-3,18.56098,R,ugm-3
14-01-2018,17:00,1.73224,R,ugm-3,17.44004,R,ugm-3,20.09610,R,ugm-3
14-01-2018,18:00,1.77782,R,ugm-3,15.27680,R,ugm-3,18.00276,R,ugm-3
14-01-2018,19:00,1.13963,R,ugm-3,13.25489,R,ugm-3,15.00230,R,ugm-3
14-01-2018,20:00,1.09404,R,ugm-3,11.37100,R,ugm-3,13.04851,R,ugm-3
14-01-2018,21:00,0.72936,R,ugm-3,10.25549,R,ugm-3,11.37383,R,ugm-3
14-01-2018,22:00,0.41027,R,ugm-3,9.20965,R,ugm-3,9.83872,R,ugm-3
14-01-2018,23:00,0.36468,R,ugm-3,7.11642,R,ugm-3,7.67560,R,ugm-3
14-01-2018,24:00,0.45585,R,ugm-3,4.60418,R,ugm-3,5.30314,R,ugm-3
15-01-2018,01:00,0.36189,R,ugm-3,3.13833,R,ugm-3,3.69322,R,ugm-3
15-01-2018,02:00,0.24126,R,ugm-3,5.07757,R,ugm-3,5.44750,R,ugm-3
15-01-2018,03:00,0.18095,R,ugm-3,4.15442,R,ugm-3,4.43186,R,ugm-3
15-01-2018,04:00,0.04524,R,ugm-3,1.80033,R,ugm-3,1.86969,R,ugm-3
15-01-2018,05:00,-0.22618,R,ugm-3,2.07800,R,ugm-3,1.73120,R,ugm-3
15-01-2018,06:00,0.09047,R,ugm-3,3.87765,R,ugm-3,4.01637,R,ugm-3
15-01-2018,07:00,0.36189,R,ugm-3,9.48604,R,ugm-3,10.04094,R,ugm-3
15-01-2018,08:00,0.63331,R,ugm-3,11.49355,R,ugm-3,12.46461,R,ugm-3
15-01-2018,09:00,1.31186,R,ugm-3,19.94008,R,ugm-3,21.95156,R,ugm-3
15-01-2018,10:00,2.84990,R,ugm-3,28.03820,R,ugm-3,32.40799,R,ugm-3
15-01-2018,11:00,1.40233,R,ugm-3,14.60777,R,ugm-3,16.75798,R,ugm-3
15-01-2018,12:00,1.26662,R,ugm-3,11.63045,R,ugm-3,13.57258,R,ugm-3
15-01-2018,13:00,0.94997,R,ugm-3,7.26863,R,ugm-3,8.72523,R,ugm-3
15-01-2018,14:00,0.99520,R,ugm-3,8.93047,R,ugm-3,10.45642,R,ugm-3
15-01-2018,15:00,2.12612,R,ugm-3,9.75860,R,ugm-3,13.01859,R,ugm-3
15-01-2018,16:00,2.03564,R,ugm-3,11.35152,R,ugm-3,14.47280,R,ugm-3
15-01-2018,17:00,2.21659,R,ugm-3,19.24532,R,ugm-3,22.64404,R,ugm-3
15-01-2018,18:00,2.30706,R,ugm-3,15.85195,R,ugm-3,19.38939,R,ugm-3
15-01-2018,19:00,2.30706,R,ugm-3,14.12075,R,ugm-3,17.65820,R,ugm-3
15-01-2018,20:00,1.76422,R,ugm-3,11.62920,R,ugm-3,14.33430,R,ugm-3